GFSGL_850_spd_015.txt.gz
Wind_Speed
5 4 5 5 4 6 8 10 12 11 10 9 8 3 3 6 9 10 13 14 14 16 21 22 23 23 26 24 22 20 17 17 13 12 13 13 14 14 14 17 18 20 19
5 5 5 2 4 6 6 9 9 9 10 9 9 8 5 5 6 6 9 11 11 12 13 16 19 20 22 19 17 17 16 17 17 21 15 13 12 11 11 12 10 12 17
5 4 3 2 3 5 6 7 7 8 11 11 10 10 12 11 8 5 3 4 3 4 8 12 13 15 12 14 17 16 14 13 11 10 18 12 8 6 7 8 8 8 12
4 5 4 2 1 3 4 4 5 7 8 10 12 13 12 11 9 7 4 2 2 3 4 5 6 7 7 7 7 6 7 11 12 14 8 7 6 6 5 4 6 8 11
4 4 3 4 2 2 3 1 3 4 7 10 11 12 13 13 14 12 11 7 7 9 11 10 9 8 8 9 9 9 9 9 9 8 8 8 7 7 8 10 11 11 11
8 4 2 2 2 2 1 1 2 3 5 6 9 10 9 11 10 8 6 6 6 5 4 4 4 4 2 3 2 1 2 5 9 12 13 15 15 11 10 12 13 16 13
15 9 11 8 4 3 2 2 3 4 5 6 7 8 9 10 9 8 6 5 5 6 6 7 7 8 9 7 6 6 4 1 4 5 5 5 7 7 9 15 18 14 15
18 15 15 14 8 6 5 4 4 4 4 3 4 5 7 11 12 10 9 6 6 7 7 7 7 8 9 8 7 5 6 6 7 2 4 5 4 2 0 0 5 10 12
18 17 17 17 12 10 9 8 8 5 4 2 3 4 4 10 9 7 7 7 5 6 7 7 6 7 9 8 5 6 7 8 8 7 7 8 10 8 6 5 2 2 2
15 20 21 22 16 14 12 9 8 7 4 2 3 6 7 6 7 4 3 4 4 3 6 7 7 5 6 5 3 5 4 5 4 5 5 3 2 2 1 2 3 5 4
14 18 23 24 20 18 13 11 10 8 4 2 4 7 9 7 7 4 2 2 2 3 4 6 7 8 7 4 1 3 3 2 3 3 3 3 4 5 6 6 5 4 6
4 13 23 25 24 21 18 14 13 8 5 4 5 9 10 8 8 7 5 3 3 2 4 6 6 4 3 3 2 3 5 3 3 3 4 5 7 8 10 11 11 9 6
8 13 21 22 23 23 19 14 12 9 7 7 8 8 9 9 7 6 3 3 6 3 4 3 3 2 2 4 7 6 4 4 4 3 4 5 7 8 8 8 7 6 5
8 15 18 20 19 16 15 12 10 9 8 7 8 9 10 8 6 7 8 8 8 7 7 9 10 11 11 11 9 8 7 7 7 7 7 7 6 7 9 9 6 4 2
8 11 12 11 12 13 12 12 11 11 8 7 9 8 9 12 12 12 11 11 11 10 10 10 10 9 9 10 12 13 12 9 7 8 7 7 8 8 7 6 5 5 6
12 13 13 12 12 11 11 14 13 10 10 10 10 8 10 12 14 13 12 12 12 11 10 10 10 10 10 10 10 11 11 10 7 8 9 9 11 12 8 6 4 4 4
14 16 16 16 16 15 13 10 10 11 11 10 10 11 11 13 14 14 13 14 14 13 11 11 9 8 8 8 7 8 9 7 6 6 7 10 12 11 6 4 5 6 5
21 22 24 24 22 22 21 20 17 13 10 10 11 12 14 15 14 12 11 9 9 8 7 8 7 7 7 8 7 6 3 6 7 8 9 13 15 9 6 5 6 6 4
26 25 22 21 20 18 17 16 16 16 15 13 10 13 15 13 10 7 5 4 3 2 2 1 2 3 4 6 8 7 4 3 4 6 8 12 13 9 7 6 5 5 5
21 19 15 14 12 11 10 10 11 11 10 9 9 11 12 12 9 6 3 2 1 2 4 4 4 4 3 2 5 8 7 6 5 5 7 12 13 15 9 8 7 5 3
14 12 9 8 7 5 5 5 7 7 6 6 9 11 10 10 8 5 2 2 4 6 7 8 8 8 7 5 4 7 10 4 3 4 8 11 13 13 9 7 6 3 2
8 8 10 10 10 10 9 10 9 9 9 7 9 11 12 11 9 8 7 6 6 7 9 10 8 6 6 6 7 10 11 9 7 8 10 11 14 14 7 6 4 2 1
7 7 12 11 14 12 10 9 11 10 12 11 8 5 10 9 7 7 5 6 7 8 10 3 4 1 2 5 9 12 13 11 9 10 12 14 14 9 5 5 4 4 5
13 10 10 12 12 12 10 9 7 7 9 11 11 9 9 9 9 8 7 7 7 9 10 7 6 5 7 9 14 15 8 7 8 11 12 11 8 6 4 4 5 6 2
6 9 11 13 13 11 14 13 12 12 10 11 13 15 15 15 14 13 11 10 10 9 8 9 11 12 11 11 12 7 5 6 8 8 8 8 8 6 5 6 6 4 3
15 12 10 8 10 14 17 18 19 18 18 17 16 17 17 19 17 16 15 15 13 12 10 10 9 12 13 12 12 8 4 5 4 4 6 6 7 8 6 5 5 6 6

GFSGL_850_spd_021.txt.gz
Wind_Speed
5 3 2 3 8 8 9 10 11 12 12 11 9 5 2 2 4 6 7 8 10 10 12 14 17 19 20 20 21 23 23 22 22 21 16 14 13 11 11 10 11 14 15
5 3 2 4 5 7 8 9 10 12 12 12 12 9 4 2 1 1 3 5 6 7 10 11 13 16 20 21 19 19 26 25 28 17 13 14 13 13 10 8 7 8 9
6 3 1 2 3 5 7 7 8 11 12 11 10 12 11 9 6 5 5 4 1 3 3 4 3 9 13 16 17 17 14 8 6 4 1 2 5 6 6 8 6 3 2
7 4 3 2 2 4 4 5 6 8 10 12 12 12 12 11 10 8 7 6 4 4 5 4 2 1 1 1 2 1 2 2 1 5 4 3 4 4 6 6 4 4 4
7 7 6 3 3 3 3 3 4 6 8 10 10 10 12 11 14 13 11 10 9 6 4 4 3 2 1 1 1 3 4 3 2 1 3 5 5 5 6 7 9 9 9
10 11 9 7 5 3 1 2 2 5 7 7 7 9 9 10 10 7 7 7 9 10 9 8 8 7 6 4 2 1 1 0 0 2 2 4 5 5 6 6 5 4 4
14 14 12 11 8 5 3 2 3 4 6 6 7 8 9 10 10 7 6 7 8 8 9 9 9 10 9 9 8 6 5 4 3 4 4 3 4 5 5 4 1 3 3
18 18 16 15 14 9 7 4 4 4 4 4 4 5 7 11 12 10 8 8 8 9 10 10 10 11 12 11 10 9 10 10 10 8 9 9 8 7 7 8 7 4 3
19 21 22 20 20 14 11 8 6 6 4 2 2 4 5 6 10 10 9 7 7 9 9 10 9 8 10 9 7 9 9 12 11 9 9 9 8 8 7 8 7 6 4
16 18 21 25 21 18 14 11 8 6 6 3 4 6 4 3 6 5 6 5 5 6 7 7 6 5 5 5 4 5 5 8 8 8 7 7 7 7 5 5 4 3 3
12 13 14 21 23 21 17 14 11 8 8 5 4 6 7 5 4 3 2 4 4 5 6 5 5 5 2 4 4 3 4 7 7 6 6 6 6 6 6 6 6 7 6
7 6 11 18 21 23 19 16 12 10 10 8 6 7 9 7 5 5 6 5 5 4 5 6 4 1 3 1 2 4 6 5 6 7 6 7 8 8 8 8 7 6 5
2 3 7 12 19 21 20 18 17 13 12 10 8 9 9 6 5 5 5 6 6 5 5 4 5 5 5 6 8 7 6 5 6 7 8 8 9 10 9 8 8 8 7
2 1 4 5 11 13 15 12 11 10 10 8 8 7 7 7 6 4 6 7 6 6 7 9 9 7 6 7 7 8 8 8 8 9 9 9 9 8 8 7 7 6 6
2 3 4 5 7 9 10 10 11 10 8 5 6 6 6 8 9 10 8 9 9 9 9 8 7 8 8 9 8 8 8 8 8 8 8 8 8 7 7 7 7 6 5
6 7 8 10 10 9 8 8 9 8 8 8 7 6 8 9 11 11 9 8 8 7 6 7 6 6 6 6 6 5 6 6 7 8 8 8 7 6 6 6 6 5 5
11 13 15 14 13 13 11 9 7 8 8 8 7 9 9 10 10 9 8 8 9 10 7 6 5 4 4 4 4 4 4 6 7 6 7 7 6 5 6 5 5 5 4
17 17 18 17 16 16 14 13 10 8 6 6 8 10 11 11 10 10 9 9 7 8 6 5 4 4 3 3 3 4 4 4 4 4 5 6 6 5 4 4 4 3 2
22 23 23 22 21 20 18 16 13 11 7 5 7 9 10 10 9 9 7 5 4 3 3 3 3 2 2 2 2 2 2 3 2 1 1 2 4 3 3 2 3 3 2
24 23 21 19 17 15 13 12 11 10 8 4 6 7 9 8 6 5 5 4 3 4 5 5 6 6 5 4 1 1 1 3 4 3 3 2 3 3 3 2 2 1 1
21 17 14 12 10 8 6 4 3 2 3 3 2 5 6 7 6 5 4 3 4 5 5 6 7 9 10 9 7 4 3 3 4 6 6 6 5 4 4 3 2 2 3
12 9 6 3 1 1 2 3 4 4 4 3 1 3 6 8 7 7 7 6 8 9 8 7 8 9 9 10 9 7 6 6 6 7 9 8 7 6 5 4 4 4 5
7 4 3 4 6 8 10 11 11 10 10 8 8 8 8 8 10 10 11 10 9 9 11 9 9 8 7 8 8 7 8 9 10 11 11 10 9 8 6 6 6 6 5
8 6 7 9 11 13 14 13 12 12 11 10 12 13 13 11 10 10 11 13 15 12 10 9 8 9 9 9 9 8 9 10 12 12 14 11 10 10 8 8 7 7 6
7 6 6 9 14 13 13 13 14 13 12 13 13 12 12 13 14 15 15 16 17 17 15 12 11 9 10 13 12 12 12 12 11 11 12 12 11 11 9 9 9 8 8
4 6 9 11 12 13 15 15 12 12 12 14 17 18 20 20 19 18 18 16 17 19 20 19 16 14 13 13 14 16 17 15 12 10 11 11 11 11 11 11 10 8 9

GFSGL_850_spd_027.txt.gz
Wind_Speed
11 8 5 3 3 4 8 8 9 11 13 15 15 12 9 8 7 7 5 5 4 2 2 6 8 9 11 13 12 12 13 13 13 14 16 16 17 22 22 21 20 16 15
9 7 5 4 0 5 6 6 7 11 12 15 14 13 11 10 9 8 7 4 5 6 3 4 5 6 8 10 10 11 11 12 12 11 13 12 8 7 7 8 10 11 10
8 8 5 4 3 3 5 4 7 9 11 12 12 12 12 11 9 10 10 9 5 3 3 1 1 3 7 7 8 9 7 3 1 2 3 3 4 3 2 2 3 1 1
8 8 6 4 2 4 3 4 7 7 8 10 11 12 12 11 11 10 9 8 8 7 6 5 5 5 5 4 1 0 4 3 3 3 2 4 4 4 4 4 4 4 4
9 8 6 5 2 2 3 2 5 5 7 7 6 6 8 9 10 11 11 10 9 8 7 6 6 6 4 3 3 2 3 3 2 3 2 4 5 4 4 4 5 5 5
10 8 8 6 6 2 3 3 3 4 5 6 6 7 8 7 9 9 10 10 10 11 12 12 11 9 8 6 5 4 3 5 3 2 2 1 1 1 1 2 1 1 1
10 9 10 10 10 3 4 1 1 1 2 4 5 6 6 6 8 9 12 10 11 11 12 11 10 12 12 11 10 8 7 6 4 3 4 6 4 3 3 3 2 1 3
10 10 12 11 13 8 6 5 4 3 1 1 5 3 4 4 6 8 11 9 10 11 10 8 8 8 10 10 9 8 7 6 7 7 6 6 8 10 11 12 11 7 5
11 12 14 13 16 15 10 9 8 6 4 2 2 1 2 3 4 7 10 6 7 6 5 7 7 6 6 10 7 7 7 7 7 7 7 8 7 6 5 4 7 3 2
18 19 17 19 17 15 11 12 11 9 6 4 5 4 1 2 2 5 9 3 5 5 4 2 2 3 4 5 5 5 5 6 5 7 9 8 7 5 5 5 4 2 2
12 13 13 14 16 13 13 12 13 9 8 9 7 7 4 3 4 3 7 6 3 3 3 3 2 2 2 1 2 3 5 7 10 13 9 5 6 7 7 3 4 4 3
7 8 7 9 9 11 12 13 12 13 10 11 9 8 5 6 4 3 5 5 8 4 3 1 1 3 4 3 3 4 9 10 4 2 3 3 3 4 6 7 5 3 4
5 5 4 4 6 10 11 15 16 14 14 12 10 7 6 6 6 5 6 5 5 5 3 1 1 4 8 5 5 7 9 5 1 1 2 3 3 5 6 9 10 9 11
4 4 4 3 3 6 7 8 8 12 11 8 7 7 8 7 6 4 4 3 2 2 1 1 4 5 4 4 7 5 3 3 4 2 2 2 3 3 3 3 2 2 2
5 5 6 6 6 6 6 7 7 8 7 6 7 6 5 5 6 5 5 4 3 4 4 5 3 0 1 1 2 3 3 3 2 2 2 2 2 2 2 2 2 2 2
6 6 8 7 7 8 6 6 7 6 6 6 6 6 5 5 4 5 5 4 6 8 4 3 3 2 1 1 1 2 2 2 1 2 2 2 2 2 1 3 2 2 1
8 11 12 12 11 10 10 8 6 6 5 3 3 2 4 4 5 5 5 5 5 9 2 3 3 2 2 1 1 2 2 3 0 2 2 2 1 2 4 2 2 1 2
12 14 10 9 8 8 7 7 6 6 5 3 3 2 3 4 4 5 5 7 5 3 1 3 3 3 3 3 2 3 4 3 2 2 2 2 2 2 3 3 3 2 3
9 9 10 10 10 10 9 8 6 5 4 3 2 2 3 4 4 5 6 6 5 5 4 4 5 5 5 4 4 5 6 5 6 5 5 4 4 4 5 5 6 5 6
12 15 13 11 10 9 8 7 6 5 4 1 1 2 4 4 3 3 5 5 4 5 5 6 7 7 8 8 7 7 6 7 6 7 6 7 6 6 6 7 7 7 7
13 11 11 9 7 6 5 5 4 4 3 2 1 5 7 5 5 5 6 5 6 6 7 7 8 8 9 10 10 9 8 8 8 8 9 9 9 9 8 9 8 8 8
10 8 7 6 4 4 2 1 1 2 2 2 2 5 6 7 5 6 7 8 8 9 9 9 9 8 10 10 11 11 11 9 9 10 10 10 10 11 11 11 10 10 10
7 6 4 3 2 2 1 3 5 5 6 5 5 6 5 3 6 8 8 10 11 11 11 12 10 9 9 10 10 11 12 11 10 11 11 11 12 13 13 13 12 12 12
5 4 2 2 1 2 7 7 8 9 9 10 8 6 8 9 9 10 11 12 12 13 13 13 13 12 11 11 11 11 11 12 12 11 11 13 15 15 16 16 15 14 14
2 3 3 5 5 7 7 8 8 9 9 10 8 11 10 12 13 13 15 16 16 16 17 17 16 15 16 16 14 13 15 18 18 18 19 16 15 16 17 17 16 16 16
2 3 4 4 6 8 9 8 10 8 8 9 9 9 9 12 14 15 17 16 22 20 20 20 20 20 20 20 20 20 21 18 17 17 18 16 15 17 17 18 18 19 18

GFSGL_850_spd_030.txt.gz
Wind_Speed
7 7 5 4 2 6 7 8 9 12 13 16 15 15 13 11 8 8 8 6 5 5 3 4 6 8 9 10 12 10 13 11 11 9 9 10 11 14 14 11 11 10 9
11 8 6 5 3 6 5 6 10 12 13 15 14 16 16 14 12 9 7 5 4 4 5 4 4 4 5 7 8 9 9 9 9 8 6 9 3 3 5 5 5 6 7
10 9 8 3 4 6 4 7 7 11 11 15 15 17 15 14 13 12 12 9 8 9 9 8 5 1 3 3 4 4 6 6 4 3 6 5 3 2 3 3 4 4 5
11 10 8 4 5 4 4 3 5 8 10 10 12 12 12 12 14 14 12 11 10 9 9 8 7 7 7 7 3 2 1 1 2 3 4 3 3 2 4 3 3 4 3
10 10 7 6 4 4 2 3 6 7 7 9 8 9 10 11 13 14 15 14 13 13 14 12 12 10 8 6 5 4 3 2 1 1 2 2 2 3 4 4 3 2 3
11 10 10 9 7 3 2 2 5 4 7 7 7 10 11 11 10 13 13 12 14 14 16 15 14 13 11 9 8 6 6 6 4 2 3 1 1 2 2 1 2 3 3
10 10 10 9 7 4 6 1 2 3 6 7 6 8 9 10 9 10 10 10 11 10 10 11 6 12 10 10 8 6 5 6 4 4 5 6 5 6 6 5 4 3 5
9 8 11 10 10 9 10 6 3 2 2 3 3 6 7 8 8 9 11 10 9 5 7 5 7 7 8 9 10 9 8 8 8 7 7 8 8 10 11 11 10 7 7
12 13 13 15 14 13 15 9 6 4 2 2 2 3 5 6 7 9 9 2 4 4 4 4 6 6 8 7 8 7 7 8 8 8 7 7 6 5 2 5 10 5 3
15 15 17 15 12 13 13 11 8 5 4 5 5 3 2 4 5 7 5 3 7 7 2 1 3 3 3 3 2 1 3 5 6 11 12 11 9 3 4 7 5 3 6
15 15 15 16 15 15 14 12 10 9 9 9 7 6 3 1 3 6 7 5 5 4 3 5 1 2 2 1 1 1 8 12 11 11 10 8 7 10 7 2 7 5 6
9 9 9 9 9 11 13 12 11 9 11 10 9 5 4 3 4 4 7 6 9 10 8 6 2 3 3 2 3 6 8 8 7 5 1 1 1 4 8 10 9 4 1
5 4 4 5 7 10 12 12 13 12 11 10 7 6 6 5 6 5 5 6 7 7 6 3 3 3 6 7 8 7 7 6 3 1 2 3 6 8 7 9 10 10 8
3 3 3 4 6 9 9 10 11 11 11 8 6 6 6 4 4 4 3 3 3 2 1 4 5 8 9 8 8 7 1 3 3 2 2 2 3 3 3 2 3 8 8
4 4 4 5 6 5 6 7 6 7 6 4 5 5 4 4 2 2 2 2 1 2 6 8 7 8 5 4 4 3 3 4 2 1 1 2 2 3 5 2 1 1 3
6 6 7 7 7 7 6 5 4 4 4 4 3 3 2 2 3 3 4 3 4 6 5 4 1 1 2 2 3 5 4 1 2 1 2 1 2 4 3 1 2 1 1
5 11 12 11 11 11 9 8 6 6 5 3 2 1 2 3 4 4 4 4 4 7 5 2 2 1 2 3 3 4 5 6 8 1 2 2 1 3 3 3 4 2 3
14 15 11 9 8 9 9 6 10 10 6 3 2 2 2 2 2 2 3 7 8 7 3 3 1 3 3 4 4 4 3 6 4 5 3 3 3 4 2 5 5 6 7
11 9 10 9 9 9 8 8 6 4 2 9 7 4 3 1 1 1 3 3 2 4 6 4 6 6 6 6 8 10 11 10 8 7 6 5 5 6 5 6 8 10 8
13 12 10 12 11 9 8 6 5 5 3 3 2 1 9 3 5 7 5 3 2 5 5 4 6 7 9 13 13 11 12 8 10 10 4 5 6 9 7 8 8 9 9
12 12 10 8 7 7 6 6 5 4 4 3 4 1 10 6 6 12 6 6 2 5 6 7 8 9 8 10 12 13 12 11 8 9 9 10 10 11 10 10 10 10 11
9 7 6 7 5 5 4 2 1 1 3 2 7 6 5 8 2 2 5 7 8 8 8 12 10 9 10 13 13 12 11 11 7 8 11 12 11 12 12 13 12 13 13
5 5 3 4 4 3 1 4 4 5 7 7 7 5 7 1 3 6 7 6 7 10 12 13 15 14 8 11 13 15 13 13 12 12 11 11 11 11 13 15 15 15 15
5 4 4 6 7 0 4 8 5 8 8 9 6 7 3 7 8 10 9 9 11 12 12 15 14 13 14 14 12 13 14 14 11 14 15 18 16 15 17 17 19 19 19
5 5 5 3 3 4 5 6 6 7 8 8 10 12 11 7 10 12 12 15 13 13 14 17 16 19 19 19 17 17 17 19 18 18 17 20 22 25 19 20 21 20 17
0 3 1 3 3 3 5 9 6 7 6 7 6 6 8 9 12 11 4 9 8 12 15 13 18 22 21 14 12 21 20 23 26 25 21 18 21 21 20 19 20 20 21

GFSGL_850_spd_036.txt.gz
Wind_Speed
9 12 10 6 3 1 4 3 7 8 7 8 9 8 7 6 8 8 10 10 8 7 6 4 5 8 12 12 11 11 15 14 15 11 12 11 8 7 5 2 1 2 3
12 12 10 4 2 1 3 8 5 7 9 10 10 10 10 11 12 12 13 14 12 10 10 9 10 7 7 8 9 9 11 14 12 16 13 11 5 4 3 3 4 4 4
18 13 10 6 4 2 4 7 6 6 10 8 9 12 11 11 12 13 12 13 13 13 13 12 10 6 6 6 5 4 4 6 7 12 14 10 8 8 7 5 4 3 4
18 14 13 10 6 7 4 4 6 5 8 7 8 10 12 13 14 15 15 14 14 14 13 11 9 9 9 8 5 4 4 4 5 7 8 10 9 9 6 5 5 3 1
18 17 15 10 6 6 4 5 6 5 6 5 7 8 9 12 14 12 12 13 14 14 14 13 13 12 11 9 7 7 7 6 7 7 7 8 9 8 6 5 4 3 2
20 15 14 10 7 5 4 5 6 6 5 5 5 6 7 10 11 11 11 11 13 14 16 15 14 13 12 10 8 8 7 6 4 6 5 5 5 4 5 4 3 3 2
19 15 14 11 11 9 7 6 6 6 6 5 5 5 5 7 8 9 8 9 9 11 12 12 13 14 12 11 9 8 6 5 4 6 6 6 4 3 4 5 4 4 4
20 16 19 16 10 6 10 7 6 5 6 5 5 5 4 4 6 8 7 6 5 6 7 8 8 9 11 11 9 7 8 7 8 7 7 7 4 4 5 5 4 6 6
18 13 15 18 12 11 12 6 2 4 6 5 6 6 6 4 3 4 5 7 6 6 6 5 5 6 7 8 8 6 6 9 10 8 7 6 5 2 2 2 1 3 2
20 18 18 20 18 14 11 6 6 4 4 5 4 7 7 6 4 1 1 4 7 8 9 5 3 4 4 4 5 5 4 10 11 8 6 5 6 10 6 4 6 7 7
22 24 20 21 19 17 10 11 13 6 5 5 4 5 7 7 6 4 3 1 4 6 8 9 4 3 3 2 2 2 6 6 6 3 0 2 6 11 9 2 4 2 7
22 19 18 19 17 15 16 15 8 8 5 5 8 7 9 8 7 5 3 1 1 3 6 7 4 3 1 3 3 4 3 2 3 4 1 2 7 6 3 7 8 4 2
11 12 11 11 13 14 15 13 8 11 8 7 8 6 7 8 8 7 5 3 3 4 3 2 4 5 6 4 2 1 3 3 3 4 1 3 5 5 3 1 1 2 2
13 13 12 13 14 15 13 9 12 12 8 10 6 6 7 7 6 5 4 4 4 2 5 8 10 10 10 10 12 8 3 2 0 1 2 2 2 4 5 4 3 3 3
11 11 11 12 12 13 12 13 12 10 10 7 6 6 6 5 5 5 5 4 5 9 10 8 6 3 2 3 3 3 5 6 6 6 7 6 4 3 5 6 5 3 1
11 12 13 13 13 11 10 10 9 7 6 4 4 5 5 4 3 3 3 4 6 9 7 4 3 4 3 3 2 3 3 4 6 10 13 10 9 7 8 5 5 4 4
11 15 16 14 13 12 11 9 7 7 5 4 2 1 1 2 3 4 4 4 7 8 6 5 4 0 5 8 9 9 10 12 14 15 12 8 7 7 6 5 5 7 5
19 21 21 22 21 22 20 17 15 12 11 9 7 5 4 3 3 3 5 6 9 8 4 4 4 4 7 9 10 10 11 13 15 13 9 9 9 8 7 8 8 6 8
21 22 21 19 18 17 17 17 18 18 20 19 18 14 11 9 6 5 8 12 9 5 3 5 5 6 6 8 9 9 11 12 13 10 5 10 10 9 9 8 10 7 9
14 16 16 16 14 14 14 13 12 13 12 11 13 14 10 9 12 11 10 7 5 4 1 3 4 3 5 7 9 9 11 13 13 15 10 8 6 8 11 11 11 12 12
13 12 15 16 14 10 9 7 4 3 4 4 4 6 7 5 4 5 6 4 4 3 3 3 8 9 10 12 10 11 15 15 16 14 11 12 10 12 12 13 13 14 14
12 14 13 12 13 10 5 2 5 6 7 6 5 4 2 3 1 3 3 4 5 5 9 9 9 12 11 12 13 12 12 14 14 13 10 9 12 14 15 15 15 15 16
15 12 15 14 13 10 7 5 1 1 1 2 2 7 8 4 1 2 2 4 8 9 9 8 9 9 7 9 12 13 13 13 13 14 15 15 16 17 18 19 19 19 21
11 13 15 14 12 10 7 4 5 4 4 4 2 3 8 6 3 8 7 15 12 8 8 10 12 14 15 19 17 18 18 22 23 22 23 23 23 22 23 23 22 21 20
9 19 19 15 12 7 6 3 3 5 4 2 4 6 9 9 8 8 8 10 14 14 13 12 15 17 17 16 18 20 20 20 21 21 26 28 29 29 29 27 25 28 23
15 14 12 10 8 8 9 8 12 9 7 6 6 8 10 7 5 5 6 8 11 12 11 12 13 13 14 16 19 20 22 22 22 26 28 30 29 29 30 37 34 26 29

GFSGL_850_spd_042.txt.gz
Wind_Speed
12 6 3 2 2 4 6 4 7 9 9 9 11 10 10 10 11 11 10 9 7 5 2 1 3 5 10 11 10 9 8 9 11 11 12 13 12 10 8 10 9 7 5
13 5 3 3 3 6 5 5 7 8 9 11 11 10 10 11 11 12 13 13 9 8 9 6 5 5 5 8 8 8 9 11 13 13 14 15 12 10 7 5 4 3 2
13 10 9 4 3 4 5 5 5 7 8 10 12 12 12 13 13 14 14 12 10 10 8 7 9 5 2 3 5 5 6 7 8 9 9 11 9 6 5 5 3 2 3
12 12 8 4 2 2 4 4 4 5 7 8 10 11 12 13 15 15 14 14 13 12 10 8 7 6 6 3 1 1 1 3 4 5 7 11 10 5 6 4 4 2 1
11 10 8 6 3 1 3 3 2 3 4 6 8 9 10 11 14 14 15 15 15 14 14 12 11 10 8 6 5 6 5 3 4 3 6 7 6 5 5 3 3 1 1
9 8 8 6 5 2 2 3 3 2 2 4 5 7 8 8 10 12 12 13 12 13 13 13 12 12 12 9 8 7 5 6 3 3 3 3 3 3 4 5 3 2 4
11 10 9 7 4 3 7 6 6 5 2 1 3 4 5 6 9 10 10 9 9 10 11 12 12 12 11 9 8 6 5 5 4 5 3 2 2 3 5 4 4 4 4
9 8 7 5 3 4 12 7 11 9 6 4 2 1 2 4 7 9 10 9 8 7 8 8 9 10 10 9 8 6 6 6 7 7 7 4 3 1 1 2 5 5 4
10 9 7 10 8 5 16 12 15 12 11 8 6 3 1 1 3 6 8 8 8 8 7 7 7 7 8 8 7 6 6 6 8 8 8 9 8 6 3 1 3 4 6
14 12 14 8 12 12 10 11 19 14 13 10 7 6 4 3 2 2 4 6 6 7 8 7 6 5 5 6 7 5 5 7 7 6 6 6 8 10 8 5 6 7 8
15 14 15 19 21 22 12 16 16 15 13 10 7 5 5 5 3 2 2 1 1 4 7 8 7 6 6 6 6 4 4 4 5 5 5 7 10 11 9 7 6 4 6
18 15 11 15 17 20 20 19 17 16 16 12 8 5 5 6 5 5 6 6 4 1 3 4 5 5 7 7 7 6 4 4 3 3 3 7 10 9 8 7 7 6 4
19 19 16 15 15 15 18 22 23 18 16 12 7 6 5 6 5 5 5 7 6 1 2 1 3 6 7 8 8 8 7 7 6 5 6 8 8 7 7 9 7 7 7
23 20 19 16 6 6 7 11 18 14 16 10 9 7 5 6 6 5 6 7 5 2 2 4 6 6 6 7 8 9 8 8 7 7 8 9 8 8 8 8 9 7 7
14 12 10 4 4 4 9 13 12 13 10 12 7 7 5 6 6 6 5 5 5 5 7 6 5 5 4 4 5 6 6 6 7 9 10 9 8 8 8 10 10 9 8
7 5 5 5 6 7 11 11 14 10 11 7 8 6 5 5 5 6 6 5 7 8 7 4 6 6 6 6 5 5 5 6 8 10 9 8 8 7 7 8 7 6 5
7 7 7 6 7 7 7 7 8 8 6 4 4 4 6 6 6 5 6 7 7 9 6 5 6 5 4 5 6 6 7 7 10 12 9 7 8 9 7 7 8 8 6
8 10 11 10 10 9 9 8 8 6 6 7 8 6 6 5 5 6 6 7 8 9 6 5 3 1 2 3 4 5 5 7 9 10 11 8 6 12 8 6 7 8 8
13 13 14 14 13 11 11 12 12 11 10 9 9 8 7 6 6 7 7 9 10 8 4 3 2 2 3 4 6 7 7 7 9 10 10 10 10 8 7 7 9 10 10
17 19 18 17 18 20 22 21 19 17 15 14 12 10 9 7 7 10 12 11 8 6 6 5 4 2 2 1 2 4 5 6 7 9 9 9 9 9 9 10 11 12 12
21 20 19 20 20 21 19 16 13 11 10 8 8 7 7 7 7 9 7 8 6 6 6 6 6 4 5 6 6 5 5 5 8 11 11 11 10 10 10 12 14 14 14
20 20 19 19 19 17 15 12 9 7 5 5 4 4 4 4 5 7 8 8 8 9 10 12 12 13 14 14 14 14 13 13 15 16 16 16 17 18 18 19 19 19 18
19 20 20 19 18 15 13 9 7 8 6 6 9 12 13 10 8 9 10 10 11 12 12 13 15 17 17 19 17 16 21 18 18 17 18 20 22 23 23 23 21 21 22
18 19 19 18 17 16 14 12 10 8 9 9 8 10 12 14 16 14 12 12 15 16 17 18 15 14 15 16 16 18 18 20 18 19 20 22 24 26 26 26 25 25 25
18 20 18 16 17 18 17 15 13 12 10 8 10 11 13 13 18 19 16 12 9 12 13 13 14 13 15 15 17 19 19 20 22 25 28 29 28 27 26 26 25 23 23
19 20 18 18 17 17 16 14 12 10 11 13 13 12 8 8 12 12 11 11 11 12 12 12 13 14 16 19 21 23 26 28 27 25 23 21 20 20 20 20 20 20 20

GFSGL_850_spd_045.txt.gz
Wind_Speed
10 10 5 3 4 6 8 10 10 9 10 9 10 10 9 9 11 10 9 10 9 8 5 3 4 3 6 8 7 5 6 8 8 10 13 12 12 10 7 7 5 6 5
12 12 8 7 6 8 9 11 11 9 10 11 11 9 9 9 11 11 12 12 10 10 12 9 9 7 3 3 4 5 6 7 8 9 13 15 12 8 6 3 3 3 2
20 14 10 7 7 9 10 11 10 10 10 11 11 11 11 12 13 13 14 13 12 11 11 10 10 7 5 3 1 2 3 5 8 8 9 10 7 4 3 2 2 0 2
12 11 9 7 7 8 9 10 9 9 9 9 9 10 10 12 13 14 15 15 15 15 13 12 10 8 7 5 4 3 2 1 1 1 4 7 6 5 2 0 2 2 2
12 10 9 6 5 6 6 8 8 8 7 7 8 8 9 10 12 13 13 14 15 15 15 15 14 14 13 11 9 8 9 8 6 5 3 3 1 1 0 2 2 2 1
13 12 10 9 5 3 3 5 6 7 6 5 6 6 7 8 9 10 11 12 13 13 14 15 14 13 13 12 11 9 8 8 6 5 4 3 3 2 3 4 2 1 4
10 11 10 9 6 4 1 2 2 5 4 2 3 5 5 6 8 8 9 9 10 11 12 13 12 12 11 11 10 9 8 6 4 6 3 2 3 4 5 4 2 3 6
10 8 9 9 6 5 9 8 1 5 1 2 2 2 4 4 6 7 7 8 8 9 10 10 11 11 12 11 11 9 9 8 10 9 7 5 4 3 3 2 3 4 3
11 9 9 9 7 6 1 8 6 6 6 6 6 4 4 4 4 5 6 7 8 8 8 8 8 8 9 10 9 9 9 11 12 11 11 10 9 7 3 3 5 3 4
17 15 17 13 9 10 6 12 12 11 9 8 7 6 4 4 3 2 4 5 5 7 8 7 6 6 6 6 7 9 9 8 8 8 7 9 10 10 8 5 3 5 7
21 19 18 17 16 17 14 12 9 11 9 10 8 6 5 5 5 5 4 3 2 4 5 7 6 6 7 7 7 7 6 4 4 4 5 8 9 9 8 8 7 5 3
17 13 11 10 15 22 24 23 11 11 10 12 10 7 5 5 6 7 7 4 2 0 2 4 7 8 8 9 7 6 5 4 3 3 3 5 6 5 6 8 7 5 4
15 16 12 11 12 14 18 22 22 20 15 17 13 8 7 5 5 6 6 6 5 3 1 3 7 9 10 9 10 9 9 7 6 4 4 5 6 6 6 8 9 7 6
14 13 13 14 13 11 13 12 11 25 21 18 14 8 8 6 5 6 6 7 6 4 4 7 8 8 7 8 9 8 7 7 6 5 6 7 7 6 6 7 7 7 6
12 11 10 8 5 5 10 12 14 21 14 14 12 9 7 6 7 7 6 7 6 6 9 9 7 5 3 4 4 4 4 5 5 7 7 7 6 6 7 7 7 6 6
10 8 6 8 8 7 8 12 17 16 14 13 11 8 6 6 6 7 7 8 7 10 9 6 5 5 5 5 4 4 4 6 7 8 7 6 6 8 7 7 7 6 6
9 10 10 10 10 9 12 14 14 16 13 11 8 6 6 6 7 6 7 7 9 11 7 8 7 5 4 3 4 4 3 5 9 8 9 7 6 7 9 6 7 7 7
9 11 12 12 12 12 11 11 10 10 11 10 7 6 6 6 6 7 7 9 9 10 8 8 6 5 3 1 1 2 3 5 6 8 8 9 7 8 8 6 7 8 8
11 13 14 14 13 13 13 12 11 10 10 8 7 7 6 7 7 8 9 10 8 9 9 8 7 5 3 2 2 3 3 4 6 8 8 8 8 7 7 7 8 10 11
14 15 14 15 15 14 14 14 15 16 15 14 12 9 8 8 8 8 10 13 13 9 9 8 6 5 4 2 1 2 3 4 6 7 8 9 9 9 8 9 10 11 12
14 16 16 16 18 22 23 22 20 18 16 14 12 10 9 9 10 11 13 13 12 10 9 10 8 7 6 6 7 8 8 9 10 12 13 13 13 12 12 13 14 15 16
18 17 19 17 21 22 21 19 16 14 11 9 8 7 7 7 9 12 11 12 11 10 11 11 11 12 13 14 15 16 15 12 19 18 18 17 16 14 14 16 17 18 20
19 18 19 19 20 18 17 14 12 10 8 8 9 10 11 10 11 12 14 14 13 12 12 13 13 15 16 18 19 16 16 17 19 20 21 20 19 16 16 18 20 21 21
19 19 19 19 19 17 15 12 10 9 9 9 8 10 12 15 18 17 16 13 12 13 15 14 14 15 15 13 13 16 17 18 19 19 20 21 24 24 22 18 18 18 19
18 19 21 20 19 17 15 13 12 11 13 10 10 11 13 14 15 19 21 18 14 13 12 11 12 13 14 15 16 17 18 18 20 23 25 25 22 20 18 15 13 13 13
18 19 21 21 19 17 17 16 15 15 14 11 11 13 14 14 11 11 16 19 17 14 11 12 14 14 16 17 19 21 23 24 24 20 17 16 15 15 14 13 13 10 10